Weather History for Rome, GA

Change the Weather History Date:

Saturday, January 12, 2013

  Actual Average Record
Temperature  
Mean Temperature 68 °F 41 °F  
Max Temperature 75 °F 52 °F 75 °F (2013)
Min Temperature 60 °F 30 °F 21 °F (2004)
Degree Days  
Heating Degree Days 0 24  
Month to date heating degree days 288  
Since 1 July heating degree days 1588  
Cooling Degree Days 2    
Growing Degree Days 18 (Base 50)    
Moisture  
Dew Point 62 °F    
Average Humidity 92    
Maximum Humidity 100    
Minimum Humidity 62    
Precipitation  
Precipitation 0.02 in 0.16 in 0.05 in (1998)
Month to date precipitation 1.44  
Year to date precipitation 1.44  
Snow  
Snow 0.00 in - - ()
Month to date snowfall  
Since 1 July snowfall  
Snow Depth -    
Sea Level Pressure  
Sea Level Pressure 30.09 in    
Wind  
Wind Speed 1 mph (South)    
Max Wind Speed 10 mph    
Max Gust Speed -    
Visibility 6 miles    
Events Fog , Rain    
T = Trace of Precipitation, MM = Missing Value Source: NWS Daily Summary

Daily Weather History Graph

Daily Weather History Graph

Search for Another Location

Airport:

Trip Planner

Search our weather history database for the weather conditions in past years. The results will help you decide how hot, cold, wet, or windy it might be!

Date:

Astronomy

Jan. 12, 2013 Rise Set
Actual Time 7:47 AM EST 5:51 PM EST
Civil Twilight 7:19 AM EST 6:18 PM EST
Nautical Twilight 6:48 AM EST 6:49 PM EST
Astronomical Twilight 6:18 AM EST 7:19 PM EST
Moon 8:09 AM EST (1/12) 7:13 PM EST (1/12)
Length of Visible Light 10h 58m
Length of Day
10h 04m
New Moon, 1% of the Moon is Illuminated
Jan 12
New Moon
Jan 18
First Quarter
Jan 26
Full
Feb 3
Last Quarter
Feb 10
New

Hourly Weather History & Observations

Time (EST) Temp. Dew Point Humidity Pressure Visibility Wind Dir Wind Speed Gust Speed Precip Events Conditions
12:21 AM 62.6 °F 62.6 °F 100% 30.11 in 1.8 mi Calm Calm - N/A   Overcast
12:30 AM 60.8 °F 60.8 °F 100% 30.10 in 3.0 mi SE 3.5 mph - N/A   Overcast
12:53 AM 62.1 °F 62.1 °F 100% 30.08 in 6.0 mi Calm Calm - N/A   Scattered Clouds
1:26 AM 60.8 °F 60.8 °F 100% 30.10 in 1.8 mi Calm Calm - N/A   Mostly Cloudy
1:46 AM 62.6 °F 62.6 °F 100% 30.10 in 3.0 mi Calm Calm - N/A   Overcast
1:53 AM 61.0 °F 61.0 °F 100% 30.08 in 5.0 mi Calm Calm - N/A   Overcast
2:00 AM 60.8 °F 60.8 °F 100% 30.10 in 1.8 mi Calm Calm - N/A   Overcast
2:31 AM 60.8 °F 60.8 °F 100% 30.11 in 2.5 mi Calm Calm - 0.00 in Rain Light Rain
2:46 AM 60.8 °F 60.8 °F 100% 30.11 in 1.0 mi Calm Calm - 0.01 in Rain Light Rain
2:53 AM 60.1 °F 60.1 °F 100% 30.09 in 0.5 mi Calm Calm - 0.01 in Fog , Rain Light Rain
3:08 AM 60.8 °F 60.8 °F 100% 30.12 in 1.0 mi Calm Calm - 0.00 in Rain Light Rain
3:31 AM 60.8 °F 60.8 °F 100% 30.11 in 0.8 mi Calm Calm - 0.01 in Rain Light Rain
3:41 AM 60.8 °F 60.8 °F 100% 30.11 in 2.0 mi Calm Calm - 0.01 in   Overcast
3:49 AM 62.6 °F 62.6 °F 100% 30.11 in 6.0 mi Calm Calm - 0.01 in   Overcast
3:53 AM 62.1 °F 62.1 °F 100% 30.09 in 5.0 mi Calm Calm - 0.01 in   Overcast
4:12 AM 62.6 °F 62.6 °F 100% 30.10 in 1.8 mi Calm Calm - N/A   Mostly Cloudy
4:23 AM 60.8 °F 60.8 °F 100% 30.11 in 2.0 mi Calm Calm - 0.00 in Rain Light Rain
4:30 AM 60.8 °F 60.8 °F 100% 30.11 in 5.0 mi Calm Calm - 0.00 in   Overcast
4:44 AM 60.8 °F 60.8 °F 100% 30.10 in 5.0 mi Calm Calm - 0.00 in   Overcast
4:53 AM 61.0 °F 61.0 °F 100% 30.09 in 5.0 mi Calm Calm - 0.00 in   Overcast
5:53 AM 61.0 °F 61.0 °F 100% 30.07 in 3.0 mi Calm Calm - 0.00 in   Overcast
6:09 AM 62.6 °F 62.6 °F 100% 30.09 in 2.0 mi Calm Calm - N/A   Overcast
6:17 AM 60.8 °F 60.8 °F 100% 30.09 in 1.2 mi Calm Calm - N/A   Overcast
6:36 AM 60.8 °F 60.8 °F 100% 30.10 in 0.8 mi Calm Calm - N/A   Overcast
6:49 AM 62.6 °F 62.6 °F 100% 30.11 in 1.2 mi Calm Calm - N/A   Overcast
6:50 AM 62.1 °F 62.1 °F 100% 30.09 in 1.2 mi Calm Calm - N/A   Overcast
6:58 AM 62.6 °F 62.6 °F 100% 30.11 in 3.0 mi Calm Calm - N/A   Overcast
7:15 AM 62.6 °F 62.6 °F 100% 30.11 in 2.5 mi Calm Calm - 0.00 in Rain Light Rain
7:23 AM 62.6 °F 62.6 °F 100% 30.11 in 7.0 mi Calm Calm - 0.00 in   Overcast
7:53 AM 62.1 °F 62.1 °F 100% 30.11 in 8.0 mi Calm Calm - 0.00 in   Overcast
8:23 AM 62.6 °F 62.6 °F 100% 30.12 in 5.0 mi Calm Calm - N/A   Overcast
8:53 AM 63.0 °F 63.0 °F 100% 30.12 in 3.0 mi Calm Calm - N/A   Overcast
9:53 AM 64.0 °F 64.0 °F 100% 30.12 in 8.0 mi Calm Calm - N/A   Overcast
10:53 AM 64.9 °F 64.0 °F 97% 30.12 in 9.0 mi SE 3.5 mph - N/A   Overcast
11:07 AM 66.2 °F 64.4 °F 94% 30.13 in 10.0 mi Calm Calm - N/A   Overcast
11:29 AM 68.0 °F 64.4 °F 88% 30.12 in 10.0 mi Calm Calm - N/A   Overcast
11:36 AM 69.8 °F 66.2 °F 88% 30.12 in 10.0 mi SSW 3.5 mph - N/A   Overcast
11:53 AM 69.1 °F 64.0 °F 84% 30.09 in 10.0 mi Variable 5.8 mph - N/A   Mostly Cloudy
12:03 PM 69.8 °F 64.4 °F 83% 30.11 in 10.0 mi SSW 5.8 mph - N/A   Mostly Cloudy
12:10 PM 69.8 °F 64.4 °F 83% 30.11 in 10.0 mi SSW 6.9 mph - N/A   Mostly Cloudy
12:41 PM 71.6 °F 64.4 °F 78% 30.09 in 10.0 mi South 5.8 mph - N/A   Scattered Clouds
12:53 PM 72.0 °F 62.1 °F 71% 30.06 in 10.0 mi South 9.2 mph - N/A   Scattered Clouds
1:53 PM 73.0 °F 61.0 °F 66% 30.04 in 10.0 mi South 5.8 mph - N/A   Overcast
2:53 PM 75.0 °F 61.0 °F 62% 30.04 in 10.0 mi South 10.4 mph - N/A   Mostly Cloudy
3:53 PM 73.9 °F 60.1 °F 62% 30.03 in 10.0 mi SSW 6.9 mph - N/A   Scattered Clouds
4:53 PM 73.0 °F 60.1 °F 64% 30.02 in 10.0 mi South 3.5 mph - N/A   Scattered Clouds
5:53 PM 69.1 °F 61.0 °F 75% 30.03 in 10.0 mi SSE 3.5 mph - N/A   Overcast
6:53 PM 69.1 °F 60.1 °F 73% 30.02 in 10.0 mi SSE 5.8 mph - N/A   Mostly Cloudy
7:53 PM 66.9 °F 60.1 °F 79% 30.02 in 10.0 mi South 4.6 mph - N/A   Overcast
8:53 PM 66.0 °F 59.0 °F 78% 30.02 in 10.0 mi South 3.5 mph - N/A   Overcast
9:53 PM 64.9 °F 59.0 °F 81% 30.01 in 10.0 mi South 5.8 mph - N/A   Mostly Cloudy
10:53 PM 63.0 °F 57.9 °F 84% 30.02 in 10.0 mi South 4.6 mph - N/A   Mostly Cloudy
11:53 PM 61.0 °F 57.9 °F 90% 30.01 in 10.0 mi SSE 5.8 mph - N/A   Scattered Clouds